• In Hungary
  • List of Countries
  • For 7 days
  • Water Temperature
  • Satellite Maps
  • Weather Map
  • News
  • Weather Widgets
  • user-avatar
    Login

    Hourly Weather Belsznica

    Today, 22 September, Saturday

    Time Temperature Precipitation Wind Pressure Humidity
    00:00 +19°C° 0.4 mm 5 mps 741 mmHg 72%
    01:00 +18°C° 0.4 mm 4 mps 741 mmHg 80%
    02:00 +17°C° 1.5 mm 4 mps 742 mmHg 82%
    03:00 +15°C° 1.5 mm 4 mps 743 mmHg 84%
    04:00 +13°C° 1.5 mm 3 mps 744 mmHg 85%
    05:00 +13°C° 0.3 mm 3 mps 744 mmHg 83%
    06:00 +14°C° 0.3 mm 2 mps 745 mmHg 81%
    07:00 +14°C° 0.3 mm 1 mps 745 mmHg 79%
    08:00 +15°C° 0.1 mm 2 mps 745 mmHg 73%
    09:00 +16°C° 0.1 mm 2 mps 746 mmHg 67%
    10:00 +16°C° 0.1 mm 3 mps 746 mmHg 60%
    11:00 +17°C° 0 mm 3 mps 746 mmHg 55%
    12:00 +18°C° 0 mm 4 mps 746 mmHg 50%
    13:00 +19°C° 0 mm 4 mps 745 mmHg 45%
    14:00 +19°C° 0 mm 4 mps 745 mmHg 45%
    15:00 +18°C° 0 mm 4 mps 745 mmHg 46%
    16:00 +18°C° 0 mm 4 mps 745 mmHg 47%
    17:00 +17°C° 0 mm 3 mps 745 mmHg 51%
    18:00 +16°C° 0 mm 3 mps 745 mmHg 54%
    19:00 +15°C° 0 mm 2 mps 745 mmHg 58%
    20:00 +15°C° 0 mm 2 mps 746 mmHg 59%
    21:00 +13°C° 0 mm 3 mps 746 mmHg 60%
    22:00 +13°C° 0 mm 3 mps 746 mmHg 61%
    23:00 +13°C° 0 mm 3 mps 746 mmHg 64%

    Tomorrow, 23 September, Sunday

    Time Temperature Precipitation Wind Pressure Humidity
    00:00 +12°C° 0 mm 3 mps 746 mmHg 66%
    01:00 +12°C° 0 mm 3 mps 745 mmHg 69%
    02:00 +12°C° 0 mm 3 mps 745 mmHg 70%
    03:00 +12°C° 0 mm 3 mps 745 mmHg 71%
    04:00 +12°C° 0 mm 3 mps 745 mmHg 72%
    05:00 +12°C° 0 mm 4 mps 745 mmHg 72%
    06:00 +12°C° 0 mm 4 mps 744 mmHg 72%
    07:00 +12°C° 0 mm 4 mps 744 mmHg 72%
    08:00 +13°C° 0.1 mm 4 mps 744 mmHg 70%
    09:00 +14°C° 0.1 mm 4 mps 744 mmHg 67%
    10:00 +14°C° 0.1 mm 5 mps 744 mmHg 65%
    11:00 +14°C° 0.1 mm 5 mps 744 mmHg 68%
    12:00 +14°C° 0.1 mm 5 mps 743 mmHg 72%
    13:00 +14°C° 0.1 mm 4 mps 743 mmHg 75%
    14:00 +14°C° 0.2 mm 4 mps 742 mmHg 78%
    15:00 +14°C° 0.2 mm 4 mps 742 mmHg 80%
    16:00 +13°C° 0.2 mm 4 mps 741 mmHg 82%
    17:00 +13°C° 0.1 mm 4 mps 740 mmHg 82%
    18:00 +13°C° 0.1 mm 5 mps 739 mmHg 82%
    19:00 +13°C° 0.1 mm 5 mps 738 mmHg 83%
    20:00 +14°C° 0 mm 6 mps 737 mmHg 79%
    21:00 +15°C° 0 mm 7 mps 736 mmHg 76%
    22:00 +15°C° 0 mm 7 mps 734 mmHg 73%
    23:00 +16°C° 1.5 mm 8 mps 733 mmHg 76%

    Day after tomorrow, 24 September, Monday

    Time Temperature Precipitation Wind Pressure Humidity
    00:00 +17°C° 1.5 mm 9 mps 732 mmHg 79%
    01:00 +17°C° 1.5 mm 9 mps 731 mmHg 82%
    02:00 +14°C° 1.9 mm 11 mps 732 mmHg 82%
    03:00 +13°C° 1.9 mm 12 mps 733 mmHg 81%
    04:00 +10°C° 1.9 mm 13 mps 734 mmHg 80%
    05:00 +9°C° 0.2 mm 11 mps 737 mmHg 80%
    06:00 +8°C° 0.2 mm 10 mps 739 mmHg 80%
    07:00 +9°C° 0.2 mm 8 mps 741 mmHg 81%
    08:00 +9°C° 0.1 mm 8 mps 742 mmHg 76%
    09:00 +8°C° 0.1 mm 9 mps 743 mmHg 71%
    10:00 +10°C° 0.1 mm 9 mps 744 mmHg 66%
    11:00 +10°C° 0.1 mm 9 mps 745 mmHg 62%
    12:00 +11°C° 0.1 mm 9 mps 746 mmHg 57%
    13:00 +11°C° 0.1 mm 9 mps 746 mmHg 52%
    14:00 +11°C° 0.1 mm 9 mps 747 mmHg 53%
    15:00 +11°C° 0.1 mm 8 mps 747 mmHg 53%
    16:00 +10°C° 0.1 mm 8 mps 747 mmHg 54%
    17:00 +9°C° 0 mm 7 mps 748 mmHg 57%
    18:00 +8°C° 0 mm 6 mps 749 mmHg 60%
    19:00 +7°C° 0 mm 4 mps 749 mmHg 63%
    20:00 +7°C° 0 mm 4 mps 750 mmHg 65%
    21:00 +7°C° 0 mm 4 mps 750 mmHg 67%
    22:00 +6°C° 0 mm 4 mps 751 mmHg 69%
    23:00 +6°C° 0 mm 4 mps 751 mmHg 71%

    25 September, Tuesday

    Time Temperature Precipitation Wind Pressure Humidity
    00:00 +6°C° 0 mm 4 mps 751 mmHg 72%
    01:00 +5°C° 0 mm 4 mps 752 mmHg 74%
    02:00 +5°C° 0 mm 4 mps 752 mmHg 75%
    03:00 +5°C° 0 mm 3 mps 753 mmHg 77%
    04:00 +4°C° 0 mm 3 mps 753 mmHg 78%
    05:00 +4°C° 0 mm 3 mps 754 mmHg 78%
    06:00 +5°C° 0 mm 4 mps 754 mmHg 77%
    07:00 +5°C° 0 mm 4 mps 755 mmHg 76%
    08:00 +6°C° 0 mm 4 mps 755 mmHg 71%
    09:00 +8°C° 0 mm 4 mps 756 mmHg 66%
    10:00 +10°C° 0 mm 4 mps 756 mmHg 61%
    11:00 +11°C° 0.1 mm 4 mps 756 mmHg 56%
    12:00 +11°C° 0.1 mm 4 mps 756 mmHg 51%
    13:00 +12°C° 0.1 mm 4 mps 756 mmHg 46%
    14:00 +12°C° 0 mm 4 mps 756 mmHg 46%
    15:00 +12°C° 0 mm 4 mps 756 mmHg 46%
    16:00 +12°C° 0 mm 4 mps 755 mmHg 46%
    17:00 +10°C° 0 mm 3 mps 756 mmHg 52%
    18:00 +9°C° 0 mm 2 mps 756 mmHg 57%
    19:00 +8°C° 0 mm 1 mps 756 mmHg 63%
    20:00 +7°C° 0 mm 2 mps 756 mmHg 64%
    21:00 +7°C° 0 mm 2 mps 756 mmHg 65%
    22:00 +6°C° 0 mm 2 mps 756 mmHg 67%
    23:00 +6°C° 0 mm 2 mps 756 mmHg 67%

    26 September, Wednesday

    Time Temperature Precipitation Wind Pressure Humidity
    00:00 +6°C° 0 mm 2 mps 756 mmHg 68%
    01:00 +6°C° 0 mm 2 mps 756 mmHg 68%
    02:00 +6°C° 0 mm 2 mps 755 mmHg 69%
    03:00 +5°C° 0 mm 2 mps 755 mmHg 70%
    04:00 +5°C° 0 mm 2 mps 755 mmHg 71%
    05:00 +5°C° 0 mm 3 mps 755 mmHg 70%
    06:00 +5°C° 0 mm 3 mps 755 mmHg 69%
    07:00 +7°C° 0 mm 3 mps 755 mmHg 68%
    08:00 +9°C° 0 mm 3 mps 755 mmHg 64%
    09:00 +11°C° 0 mm 4 mps 755 mmHg 61%
    10:00 +12°C° 0 mm 4 mps 755 mmHg 57%
    11:00 +13°C° 0 mm 4 mps 755 mmHg 55%
    12:00 +14°C° 0 mm 4 mps 754 mmHg 54%
    13:00 +15°C° 0 mm 4 mps 754 mmHg 52%
    14:00 +16°C° 0 mm 3 mps 754 mmHg 53%
    15:00 +14°C° 0 mm 3 mps 754 mmHg 54%
    16:00 +14°C° 0 mm 3 mps 753 mmHg 55%
    17:00 +14°C° 0 mm 2 mps 753 mmHg 62%
    18:00 +12°C° 0 mm 1 mps 754 mmHg 68%
    19:00 +10°C° 0 mm 0 mps 754 mmHg 74%
    20:00 +10°C° 0 mm 1 mps 754 mmHg 75%
    21:00 +10°C° 0 mm 1 mps 754 mmHg 76%
    22:00 +10°C° 0 mm 1 mps 754 mmHg 77%
    23:00 +10°C° 0 mm 1 mps 754 mmHg 77%

    27 September, Thursday

    Time Temperature Precipitation Wind Pressure Humidity
    00:00 +8°C° 0 mm 2 mps 753 mmHg 78%
    01:00 +8°C° 0 mm 2 mps 753 mmHg 78%
    02:00 +8°C° 0 mm 2 mps 753 mmHg 77%
    03:00 +8°C° 0 mm 2 mps 752 mmHg 77%
    04:00 +8°C° 0 mm 2 mps 752 mmHg 76%
    05:00 +8°C° 0 mm 3 mps 752 mmHg 74%
    06:00 +9°C° 0 mm 3 mps 752 mmHg 71%
    07:00 +9°C° 0 mm 3 mps 751 mmHg 69%
    08:00 +11°C° 0 mm 3 mps 751 mmHg 62%
    09:00 +13°C° 0 mm 4 mps 751 mmHg 54%
    10:00 +17°C° 0 mm 4 mps 750 mmHg 47%
    11:00 +17°C° 0 mm 5 mps 750 mmHg 45%
    12:00 +19°C° 0 mm 5 mps 749 mmHg 43%
    13:00 +20°C° 0 mm 5 mps 749 mmHg 40%
    14:00 +19°C° 0 mm 5 mps 748 mmHg 42%
    15:00 +19°C° 0 mm 5 mps 748 mmHg 45%
    16:00 +17°C° 0 mm 5 mps 747 mmHg 47%
    17:00 +17°C° 0 mm 4 mps 747 mmHg 51%
    18:00 +14°C° 0 mm 4 mps 747 mmHg 55%
    19:00 +12°C° 0 mm 4 mps 747 mmHg 59%
    20:00 +12°C° 0 mm 4 mps 747 mmHg 60%
    21:00 +12°C° 0 mm 3 mps 747 mmHg 60%
    22:00 +11°C° 0 mm 3 mps 747 mmHg 61%
    23:00 +11°C° 0 mm 3 mps 747 mmHg 63%
    Show more